Location: Sungai Bunut
(2.6333°N, 113.7333°E)
Time: 10:55:27
(UTC+00:00)

Transit 2A - Pass Details

Date: 09 December 2023
Orbit: 599 x 953 km, 66.7° (Epoch: 01 March)

Event Time Altitude Azimuth Distance (km) Brightness Sun altitude
Rises 05:41:13 0° 207° (SSW) 3,514 9.9 57.3°
Reaches altitude 10° 05:43:52 10° 211° (SSW) 2,527 9.4 56.9°
Maximum altitude 05:49:36 58° 289° (WNW) 947 7.6 56.0°
Drops below altitude 10° 05:54:47 10° 8° (N) 2,287 8.3 55.2°
Sets 05:57:05 0° 12° (NNE) 3,154 8.9 54.8°
